Content
SEND FEEDBACK

Daily
Averages
Monthly
Summary
United States of America

HURTSBORO, ALABAMA


Home > North America > United States > Alabama
Elevation: 39 feet     Latitude: 32 16N     Longitude: 085 24W

WEATHER
 
SELECT A DAY
Number of Records: 268,783;   Date Range: 1/1/95 - 11/21/14
 
SHARE

PRINT THIS DATA

[ ← Previous Day ]
WEATHER ALMANAC - JANUARY 31, 2013
[ Next Day → ]
[ °C ]   °F
Weather ElementAverageHighLow
Temperature43.1 °F55.6 °F (3:55 pm)32.9 °F (11:55 pm)
Dewpoint28.1 °F32.2 °F (1:55 am)23.5 °F (1:55 pm)
Humidity58.8 %85 % (11:55 pm)30 % (2:55 pm)
Barometer30.15 in30.25 in (11:55 pm)30.00 in (1:55 am)
Wind Speed8.4 mph16.1 mph (12:55 pm)
Wind Gust21.9 mph (2:55 am)
Weather ElementAverage
Visibility10 mi
Wind DirectionWSW (231.7 °)

Weather ElementTotal
Precipitation---
Heating Degree Days20.8 (Base 65)
Averaged from 23 records on January 31, 2013
WEATHER CONDITIONS BREAKOUT
WIND DIRECTION BREAKOUT
WEATHER BY HOUR - JANUARY 31, 2013
[ °C ]   °F
Local TimeTemperatureDewpointHumidityBarometerVisibilityWind DirectionWind SpeedGust SpeedPrecipitationEventsConditions
1:55 AM43.3 °F32.2 °F65 %30.00 in10.0 miWNW (290°)10.4 mphPartly Cloudy
2:55 AM41.9 °F30.9 °F65 %30.02 in10.0 miWest (280°)13.8 mph21.9 mphScattered Clouds
3:55 AM40.6 °F30.6 °F67 %30.04 in10.0 miWest (280°)10.4 mph17.3 mphClear
4:55 AM39.4 °F30.4 °F70 %30.06 in10.0 miWNW (290°)9.2 mphClear
5:55 AM38.7 °F29.3 °F69 %30.10 in10.0 miWest (280°)10.4 mphClear
6:55 AM36.9 °F28.8 °F72 %30.10 in10.0 miWNW (290°)6.9 mphClear
7:55 AM35.6 °F28.2 °F75 %30.11 in10.0 miWNW (300°)5.8 mphClear
8:55 AM38.8 °F28.8 °F67 %30.14 in10.0 miWNW (290°)10.4 mph17.3 mphClear
9:55 AM42.1 °F29.1 °F60 %30.16 in10.0 miWNW (300°)11.5 mph21.9 mphClear
10:55 AM44.4 °F28.0 °F53 %30.19 in10.0 miWNW (290°)12.7 mph19.6 mphClear
11:55 AM48.0 °F27.0 °F44 %30.20 in10.0 miWest (280°)11.5 mphClear
12:55 PM51.4 °F26.2 °F38 %30.19 in10.0 miWNW (300°)16.1 mphClear
1:55 PM53.4 °F23.5 °F31 %30.16 in10.0 miWNW (300°)10.4 mph19.6 mphClear
2:55 PM55.2 °F23.7 °F30 %30.16 in10.0 miNW (310°)15.0 mph19.6 mphClear
3:55 PM55.6 °F24.3 °F30 %30.16 in10.0 miWNW (290°)13.8 mph18.4 mphClear
4:55 PM54.5 °F23.9 °F31 %30.16 in10.0 miNNW (330°)9.2 mphClear
5:55 PM50.0 °F24.4 °F37 %30.17 in10.0 miWNW (300°)6.9 mphClear
6:55 PM41.2 °F30.9 °F67 %30.19 in10.0 miCalmClear
7:55 PM39.0 °F30.7 °F72 %30.21 in10.0 miCalmClear
8:55 PM37.6 °F30.0 °F74 %30.23 in10.0 miCalmClear
9:55 PM38.3 °F28.2 °F67 %30.23 in10.0 miSSW (200°)4.6 mphClear
10:55 PM33.4 °F29.1 °F84 %30.24 in10.0 miCalmClear
11:55 PM32.9 °F28.9 °F85 %30.25 in10.0 miSE (130°)3.5 mphClear
Hourly data recorded from KLSF, located miles away from Hurtsboro, Alabama







STORIES FROM OUR PARTNERS